EA1RCP-WX Weather Reports


Display with metric or nautical units.
time (UTC)temp
F
wind
direction
speed
MPH
gust
MPH
rain 1hr
in
rain 24hr
in
rain mn
in
humidity
%
barometer
mb
20240522174256 52 217 0.0 7.0 0.00 0.09 0.00 48 1018.7
20240522173756 52 236 0.0 8.0 0.00 0.09 0.00 51 1018.8
20240522173256 53 243 0.0 3.0 0.00 0.09 0.00 52 1018.7
20240522172756 53 266 0.0 4.0 0.00 0.09 0.00 54 1018.7
20240522172257 54 318 4.0 4.0 0.00 0.09 0.00 57 1018.8
20240522171756 54 60 0.0 2.0 0.00 0.09 0.00 60 1018.6
20240522171256 55 293 1.0 4.0 0.00 0.09 0.00 61 1018.7
20240522170756 56 233 0.0 9.0 0.00 0.09 0.00 62 1018.6
20240522170256 57 284 0.0 7.0 0.00 0.09 0.00 62 1018.6
20240522165756 57 330 2.0 4.0 0.00 0.09 0.00 62 1018.5
20240522165256 57 238 1.0 3.0 0.00 0.09 0.00 62 1018.6
20240522164756 57 307 5.0 5.0 0.00 0.09 0.00 61 1018.6
20240522164256 57 297 1.0 7.0 0.00 0.09 0.00 58 1018.5
20240522163756 56 41 0.0 9.0 0.00 0.09 0.00 58 1018.5
20240522163256 56 326 2.0 6.0 0.00 0.09 0.00 55 1018.5
20240522162756 55 274 2.0 7.0 0.00 0.09 0.00 54 1018.5
20240522162256 54 250 2.0 6.0 0.00 0.09 0.00 57 1018.5
20240522161756 55 250 0.0 6.0 0.00 0.09 0.00 60 1018.6
20240522161256 56 218 0.0 4.0 0.00 0.09 0.00 61 1018.5
20240522160757 57 269 0.0 5.0 0.00 0.09 0.00 60 1018.4
20240522160256 58 295 0.0 7.0 0.00 0.09 0.00 61 1018.4
20240522155756 58 103 0.0 5.0 0.00 0.09 0.00 60 1018.3
20240522155256 57 343 0.0 4.0 0.00 0.09 0.00 61 1018.4
20240522154757 57 283 0.0 5.0 0.00 0.09 0.00 62 1018.3
20240522154257 58 295 2.0 6.0 0.00 0.09 0.00 61 1018.3
20240522153756 58 264 0.0 4.0 0.00 0.09 0.00 62 1018.2
20240522153257 58 311 0.0 6.0 0.00 0.09 0.00 61 1018.2
20240522152756 58 321 1.0 7.0 0.00 0.09 0.00 62 1018.1
20240522152256 57 346 0.0 8.0 0.00 0.09 0.00 62 1018.2
20240522151756 57 255 0.0 11.0 0.00 0.09 0.00 62 1018.1
20240522151256 57 278 2.0 12.0 0.00 0.09 0.00 61 1018.1
20240522150758 58 288 4.0 8.0 0.00 0.09 0.00 62 1018.2
20240522150256 59 256 0.0 8.0 0.00 0.09 0.00 62 1018.1
20240522145757 59 6 2.0 5.0 0.00 0.09 0.00 58 1018.0
20240522145256 58 257 0.0 7.0 0.00 0.09 0.00 59 1018.1
20240522144756 58 15 0.0 6.0 0.00 0.09 0.00 57 1018.1
20240522144256 57 41 0.0 5.0 0.00 0.09 0.00 55 1018.1
20240522143756 57 244 1.0 6.0 0.00 0.09 0.00 53 1018.2
20240522143256 56 34 2.0 5.0 0.00 0.09 0.00 38 1018.2
20240522142756 55 249 0.0 5.0 0.00 0.09 0.00 47 1018.1
20240522142256 55 248 0.0 9.0 0.00 0.09 0.00 56 1018.1
20240522141756 57 183 2.0 3.0 0.00 0.09 0.00 58 1018.1
20240522141256 57 355 2.0 8.0 0.00 0.10 0.00 61 1018.1
20240522140756 57 283 2.0 6.0 0.00 0.10 0.00 61 1018.1
20240522140256 57 240 0.0 4.0 0.00 0.10 0.00 59 1018.1
20240522135757 58 291 1.0 7.0 0.00 0.11 0.00 55 1018.1
20240522135256 58 13 1.0 4.0 0.00 0.11 0.00 52 1018.1
20240522134756 57 342 2.0 6.0 0.00 0.11 0.00 47 1018.1
20240522134256 57 1 0.0 6.0 0.00 0.11 0.00 52 1018.2
20240522133756 58 355 3.0 6.0 0.00 0.11 0.00 54 1018.2
20240522133256 57 285 0.0 7.0 0.00 0.11 0.00 60 1018.3
20240522132756 57 67 0.0 12.0 0.00 0.11 0.00 53 1018.3
20240522132256 56 262 0.0 6.0 0.00 0.11 0.00 54 1018.3
20240522131756 56 245 0.0 11.0 0.00 0.11 0.00 49 1018.3
20240522131256 55 303 4.0 11.0 0.00 0.11 0.00 49 1018.3
20240522130756 54 15 5.0 12.0 0.00 0.11 0.00 45 1018.3
20240522130256 53 331 5.0 12.0 0.00 0.11 0.00 38 1018.3
20240522125756 52 294 8.0 12.0 0.00 0.11 0.00 39 1018.4
20240522125256 52 243 3.0 9.0 0.00 0.11 0.00 40 1018.4
20240522124756 53 250 5.0 10.0 0.00 0.11 0.00 45 1018.3
20240522124256 53 276 1.0 15.0 0.00 0.11 0.00 47 1018.3
20240522123756 55 282 4.0 6.0 0.00 0.11 0.00 20 1018.4
20240522123256 54 315 6.0 11.0 0.00 0.11 0.00 34 1018.3
20240522122756 54 307 3.0 8.0 0.00 0.11 0.00 16 1018.4
20240522122256 53 279 0.0 11.0 0.01 0.11 0.00 1 1018.4
20240522121756 53 309 5.0 10.0 0.01 0.11 0.00 1 1018.4
20240522121257 52 310 5.0 12.0 0.01 0.11 0.00 1 1018.4
20240522120756 51 264 0.0 10.0 0.01 0.11 0.00 1 1018.4
20240522120257 50 274 0.0 8.0 0.01 0.11 0.00 1 1018.5
20240522115756 51 328 2.0 6.0 0.01 0.11 0.00 1 1018.5
20240522115256 51 63 0.0 3.0 0.01 0.11 0.00 1 1018.4
20240522114756 51 355 0.0 2.0 0.01 0.12 0.00 1 1018.4
20240522114256 51 306 0.0 4.0 0.01 0.12 0.00 1 1018.4
20240522113756 51 4 1.0 4.0 0.02 0.12 0.00 1 1018.4
20240522113256 51 344 0.0 7.0 0.02 0.12 0.00 1 1018.4
20240522112756 52 290 0.0 7.0 0.01 0.11 0.00 1 1018.3
20240522112256 53 274 0.0 2.0 0.00 0.11 0.00 1 1018.3
20240522111756 52 315 0.0 5.0 0.00 0.11 0.00 1 1018.3
20240522111256 53 304 0.0 4.0 0.00 0.11 0.00 1 1018.3
20240522110756 53 265 0.0 7.0 0.00 0.11 0.00 1 1018.2
20240522110256 52 48 0.0 9.0 0.00 0.11 0.00 1 1018.1
20240522105756 51 333 7.0 10.0 0.00 0.11 0.00 1 1018.1
20240522105257 51 321 0.0 6.0 0.00 0.11 0.00 1 1018.1
20240522104756 52 302 5.0 8.0 0.02 0.11 0.00 1 1018.1
20240522104256 52 267 8.0 10.0 0.02 0.11 0.00 1 1018.1
20240522103756 52 270 0.0 10.0 0.01 0.10 0.00 1 1018.0
20240522103257 52 252 0.0 7.0 0.02 0.10 0.00 1 1017.9
20240522102756 52 255 1.0 4.0 0.03 0.10 0.00 1 1017.9
20240522102256 51 279 0.0 5.0 0.03 0.10 0.00 1 1018.0
20240522101756 51 266 0.0 5.0 0.04 0.10 0.00 1 1018.0
20240522101256 50 238 2.0 3.0 0.04 0.10 0.00 1 1017.9
20240522100757 49 283 0.0 3.0 0.04 0.10 0.00 1 1018.0
20240522100257 49 223 0.0 2.0 0.05 0.10 0.00 1 1018.0
20240522095756 49 295 0.0 6.0 0.06 0.10 0.00 1 1017.9
20240522095256 50 252 2.0 3.0 0.06 0.10 0.00 1 1017.8
20240522094756 50 348 0.0 3.0 0.04 0.08 0.00 1 1017.8
20240522094256 49 346 0.0 5.0 0.04 0.08 0.00 1 1017.7
20240522093756 49 248 1.0 2.0 0.04 0.08 0.00 1 1017.7
20240522093257 49 319 1.0 3.0 0.03 0.07 0.00 1 1017.6
20240522092756 50 301 1.0 1.0 0.03 0.07 0.00 1 1017.6
20240522092256 50 338 0.0 3.0 0.03 0.06 0.00 1 1017.6
20240522091756 49 353 0.0 9.0 0.02 0.05 0.00 1 1017.5
20240522091256 49 295 2.0 5.0 0.02 0.05 0.00 1 1017.6
20240522090756 48 352 0.0 6.0 0.02 0.05 0.00 1 1017.5
20240522090256 48 261 0.0 8.0 0.01 0.04 0.00 1 1017.5
20240522085756 49 274 5.0 8.0 0.00 0.03 0.00 1 1017.5
20240522085256 48 349 4.0 8.0 0.00 0.03 0.00 1 1017.5
20240522084756 48 312 7.0 8.0 0.00 0.03 0.00 1 1017.5
20240522084256 48 290 2.0 6.0 0.00 0.03 0.00 1 1017.5
20240522083756 48 260 4.0 8.0 0.00 0.03 0.00 1 1017.5
20240522083256 48 291 1.0 6.0 0.00 0.03 0.00 1 1017.4
20240522082756 48 266 5.0 10.0 0.00 0.03 0.00 1 1017.4
20240522082256 48 262 10.0 11.0 0.00 0.03 0.00 1 1017.4
20240522081756 48 310 2.0 11.0 0.00 0.03 0.00 1 1017.3
20240522081256 48 245 3.0 11.0 0.00 0.03 0.00 1 1017.2
20240522080756 48 231 1.0 12.0 0.00 0.03 0.00 1 1017.2
20240522080256 48 297 6.0 12.0 0.00 0.03 0.00 1 1017.2
20240522075756 48 304 0.0 5.0 0.00 0.03 0.00 1 1017.2
20240522075256 48 271 3.0 5.0 0.00 0.03 0.00 1 1017.2
20240522074756 48 279 3.0 10.0 0.00 0.03 0.00 1 1017.2
20240522074256 47 270 0.0 7.0 0.00 0.03 0.00 1 1017.2
20240522073756 47 242 4.0 10.0 0.00 0.03 0.00 1 1017.2
20240522073257 47 293 2.0 8.0 0.00 0.03 0.00 1 1017.1
20240522072756 47 288 0.0 5.0 0.00 0.03 0.00 1 1017.1
20240522072256 47 221 2.0 7.0 0.00 0.03 0.00 1 1017.0
20240522071756 47 269 2.0 6.0 0.00 0.03 0.00 1 1017.1
20240522071256 47 258 4.0 10.0 0.00 0.03 0.00 1 1017.0
20240522070756 47 257 0.0 7.0 0.00 0.03 0.00 1 1016.9
20240522070256 47 294 2.0 8.0 0.00 0.03 0.00 1 1016.9
20240522065756 47 283 8.0 9.0 0.00 0.03 0.00 1 1016.9
20240522065256 47 16 2.0 11.0 0.00 0.03 0.00 1 1016.8
20240522064756 46 260 4.0 11.0 0.00 0.03 0.00 1 1017.0
20240522064256 46 190 0.0 3.0 0.00 0.03 0.00 1 1016.9
20240522063756 46 250 0.0 1.0 0.00 0.03 0.00 1 1016.9
20240522063256 46 108 0.0 0.0 0.00 0.03 0.00 1 1016.9
20240522062756 46 118 0.0 0.0 0.00 0.03 0.00 1 1016.9
20240522062256 46 118 0.0 0.0 0.00 0.03 0.00 1 1016.9
20240522061756 46 118 0.0 0.0 0.00 0.03 0.00 1 1016.7
20240522061256 46 118 0.0 0.0 0.00 0.03 0.00 1 1016.8
20240522060756 45 118 0.0 0.0 0.00 0.03 0.00 1 1016.7
20240522060256 45 118 0.0 0.0 0.00 0.03 0.00 1 1016.8
20240522055756 45 118 0.0 0.0 0.00 0.03 0.00 9 1016.7
20240522055256 46 120 0.0 1.0 0.00 0.03 0.00 21 1016.7
20240522054756 46 125 1.0 0.0 0.00 0.03 0.00 31 1016.8
20240522054256 46 286 0.0 0.0 0.00 0.03 0.00 35 1016.8
20240522053756 46 321 0.0 1.0 0.00 0.03 0.00 32 1016.8
20240522053256 46 222 0.0 0.0 0.00 0.03 0.00 33 1016.8
20240522052756 46 222 0.0 1.0 0.00 0.03 0.00 36 1016.9
20240522052256 46 284 0.0 3.0 0.00 0.03 0.00 35 1017.0
20240522051756 46 282 1.0 4.0 0.00 0.03 0.00 26 1016.9
20240522051256 45 264 0.0 1.0 0.00 0.03 0.00 13 1016.8
20240522050756 45 282 0.0 1.0 0.00 0.03 0.00 4 1016.7
20240522050256 45 249 0.0 3.0 0.00 0.03 0.00 1 1016.7
20240522045756 45 243 0.0 1.0 0.00 0.03 0.00 1 1016.7
20240522045256 45 297 0.0 3.0 0.00 0.03 0.00 1 1016.6
20240522044756 45 298 2.0 2.0 0.00 0.03 0.00 1 1016.5
20240522044256 45 292 1.0 3.0 0.00 0.03 0.00 1 1016.5
20240522043756 45 0 0.0 0.0 0.00 0.03 0.00 1 1016.7
20240522043256 46 314 0.0 4.0 0.00 0.03 0.00 1 1016.6
20240522042756 45 233 0.0 4.0 0.00 0.03 0.00 1 1016.5
20240522042256 45 268 0.0 2.0 0.00 0.03 0.00 1 1016.4
20240522041756 45 221 0.0 0.0 0.00 0.03 0.00 1 1016.5
20240522041256 45 124 0.0 2.0 0.00 0.03 0.00 1 1016.5
20240522040756 45 210 0.0 5.0 0.00 0.03 0.00 1 1016.7
20240522040257 45 210 0.0 6.0 0.00 0.03 0.00 1 1016.8
20240522035756 45 143 0.0 4.0 0.00 0.03 0.00 1 1016.8
20240522035257 45 269 2.0 7.0 0.00 0.03 0.00 1 1017.1
20240522034756 45 279 1.0 5.0 0.00 0.03 0.00 1 1017.1
20240522034256 45 276 1.0 5.0 0.00 0.03 0.00 1 1017.2
20240522033756 45 304 3.0 3.0 0.00 0.03 0.00 1 1017.1
20240522033256 45 281 0.0 4.0 0.00 0.03 0.00 1 1017.1
20240522032756 45 285 2.0 3.0 0.00 0.03 0.00 1 1017.1
20240522032256 45 329 0.0 6.0 0.00 0.03 0.00 1 1016.9
20240522031756 45 346 0.0 1.0 0.00 0.03 0.00 1 1016.9
20240522031258 46 244 0.0 2.0 0.00 0.03 0.00 1 1017.1
20240522030756 46 315 0.0 4.0 0.00 0.03 0.00 1 1017.1
20240522030256 46 312 0.0 4.0 0.00 0.03 0.00 1 1017.0
20240522025758 46 282 0.0 0.0 0.00 0.03 0.00 1 1017.1
20240522025256 46 272 0.0 3.0 0.00 0.03 0.00 1 1017.1
20240522024756 46 322 0.0 2.0 0.00 0.03 0.00 1 1017.2
20240522024256 46 321 0.0 2.0 0.00 0.03 0.00 1 1017.0
20240522023758 46 266 0.0 3.0 0.00 0.03 0.00 1 1017.1
20240522023256 47 278 0.0 1.0 0.00 0.03 0.00 1 1017.1
20240522022756 47 283 0.0 0.0 0.00 0.03 0.00 1 1017.1
20240522022256 47 288 0.0 2.0 0.00 0.03 0.00 1 1017.2
20240522021756 46 292 0.0 3.0 0.00 0.03 0.00 1 1017.2
20240522021256 46 273 0.0 0.0 0.00 0.03 0.00 1 1017.2
20240522020758 47 273 0.0 0.0 0.00 0.03 0.00 1 1017.2
20240522020257 47 273 0.0 0.0 0.00 0.03 0.00 1 1017.0
20240522015756 48 276 0.0 2.0 0.00 0.03 0.00 1 1017.1
20240522015256 48 304 0.0 4.0 0.00 0.03 0.00 1 1017.1
20240522014756 48 282 0.0 3.0 0.00 0.03 0.00 1 1017.2
20240522014257 47 290 2.0 4.0 0.00 0.03 0.00 1 1017.4
20240522013756 47 242 0.0 2.0 0.00 0.03 0.00 1 1017.4
20240522013256 47 290 0.0 2.0 0.00 0.03 0.00 1 1017.4
20240522012756 47 249 0.0 4.0 0.00 0.03 0.00 1 1017.4
20240522012256 47 288 2.0 6.0 0.00 0.03 0.00 1 1017.4
20240522011756 47 317 5.0 6.0 0.00 0.03 0.00 1 1017.7
20240522011256 47 270 0.0 3.0 0.00 0.03 0.00 1 1017.8
20240522010756 47 268 0.0 4.0 0.00 0.03 0.00 1 1017.7
20240522010256 47 316 0.0 1.0 0.00 0.03 0.00 1 1017.7
20240522005756 47 54 0.0 0.0 0.00 0.03 0.00 1 1017.8
20240522005256 47 267 0.0 0.0 0.00 0.03 0.00 1 1017.8
20240522004756 47 267 0.0 0.0 0.00 0.03 0.00 1 1017.8
20240522004256 47 43 0.0 1.0 0.00 0.03 0.00 1 1017.7
20240522003756 47 285 0.0 0.0 0.00 0.03 0.00 1 1017.8
20240522003256 47 308 0.0 0.0 0.00 0.03 0.00 1 1017.9
20240522002756 47 308 0.0 0.0 0.00 0.03 0.00 1 1017.9
20240522002256 47 308 0.0 0.0 0.00 0.03 0.00 1 1018.1
20240522001756 47 98 0.0 0.0 0.00 0.03 0.00 1 1018.0
20240522001256 47 98 0.0 0.0 0.00 0.03 0.00 1 1018.1
20240522000757 47 98 0.0 1.0 0.00 0.03 0.00 1 1018.1
20240522000256 47 99 0.0 2.0 0.00 0.03 0.00 1 1018.0
20240521235756 47 277 0.0 0.0 0.00 0.03 0.00 1 1018.3
20240521235256 47 271 0.0 4.0 0.00 0.03 0.00 1 1018.3
20240521234756 47 273 0.0 0.0 0.00 0.03 0.00 1 1018.3
20240521234256 46 99 0.0 1.0 0.00 0.03 0.00 1 1018.3
20240521233756 46 119 0.0 0.0 0.00 0.03 0.00 1 1018.3
20240521233256 46 115 0.0 2.0 0.00 0.03 0.00 1 1018.3
20240521232756 46 118 0.0 0.0 0.00 0.03 0.00 1 1018.2
20240521232256 46 241 0.0 2.0 0.00 0.03 0.00 1 1018.2
20240521231756 46 255 1.0 1.0 0.00 0.03 0.00 1 1018.3
20240521231256 46 218 0.0 0.0 0.00 0.03 0.00 1 1018.3
20240521230756 46 110 0.0 0.0 0.00 0.03 0.00 1 1018.3
20240521230256 46 229 0.0 2.0 0.00 0.03 0.00 1 1018.4
20240521225756 46 106 0.0 3.0 0.00 0.03 0.00 1 1018.4
20240521225256 46 164 0.0 0.0 0.00 0.03 0.00 1 1018.5
20240521224756 46 293 0.0 1.0 0.00 0.03 0.00 1 1018.5
20240521224256 46 215 0.0 0.0 0.00 0.03 0.00 1 1018.5
20240521223756 46 314 0.0 0.0 0.00 0.03 0.00 1 1018.5
20240521223256 46 109 0.0 0.0 0.00 0.03 0.00 1 1018.6
20240521222756 46 109 0.0 0.0 0.00 0.03 0.00 1 1018.5
20240521222256 46 122 0.0 5.0 0.00 0.03 0.00 1 1018.6
20240521221756 46 216 0.0 0.0 0.00 0.03 0.00 1 1018.5
20240521221256 47 217 0.0 0.0 0.00 0.03 0.00 1 1018.6
20240521220756 47 335 0.0 2.0 0.00 0.03 0.00 1 1018.6
20240521220256 47 86 2.0 2.0 0.00 0.03 0.00 1 1018.6
20240521215756 47 238 0.0 0.0 0.00 0.03 0.00 1 1018.6
20240521215256 48 192 0.0 6.0 0.00 0.03 0.00 1 1018.6
20240521214756 48 288 1.0 8.0 0.00 0.03 0.00 1 1018.6
20240521214256 48 293 2.0 9.0 0.00 0.03 0.00 1 1018.6
20240521213756 48 314 0.0 10.0 0.00 0.03 0.00 1 1018.6
20240521213256 48 271 7.0 11.0 0.00 0.03 0.00 1 1018.7
20240521212756 48 305 4.0 7.0 0.00 0.03 0.00 1 1018.6
20240521212256 48 326 0.0 7.0 0.00 0.03 0.00 1 1018.5
20240521211756 48 290 0.0 6.0 0.00 0.03 0.00 1 1018.6
20240521211256 48 293 1.0 7.0 0.00 0.03 0.00 1 1018.6
20240521210756 48 310 0.0 10.0 0.00 0.03 0.00 1 1018.6
20240521210256 48 293 4.0 6.0 0.00 0.03 0.00 1 1018.6
20240521205756 48 326 0.0 6.0 0.00 0.03 0.00 1 1018.5
20240521205256 48 296 3.0 6.0 0.00 0.03 0.00 1 1018.5
20240521204756 48 281 4.0 9.0 0.00 0.03 0.00 1 1018.4
20240521204256 48 322 1.0 7.0 0.00 0.03 0.00 1 1018.4
20240521203756 48 276 1.0 8.0 0.00 0.03 0.00 1 1018.5
20240521203256 48 297 4.0 10.0 0.00 0.03 0.00 1 1018.4
20240521202756 48 301 3.0 9.0 0.00 0.03 0.00 1 1018.4
20240521202256 48 300 8.0 10.0 0.00 0.03 0.00 1 1018.4
20240521201756 48 257 5.0 6.0 0.00 0.03 0.00 1 1018.3
20240521201256 48 305 2.0 5.0 0.00 0.03 0.00 1 1018.2
20240521200756 48 300 4.0 5.0 0.00 0.03 0.00 1 1018.3
20240521200256 48 340 1.0 2.0 0.00 0.03 0.00 1 1018.3
20240521195756 48 262 0.0 6.0 0.00 0.03 0.00 1 1018.3
20240521195256 48 293 0.0 6.0 0.00 0.03 0.00 1 1018.3
20240521194756 48 266 3.0 5.0 0.00 0.03 0.00 1 1018.2
20240521194256 48 307 2.0 5.0 0.00 0.03 0.00 1 1018.2
20240521193756 49 347 2.0 6.0 0.00 0.03 0.00 1 1018.1
20240521193256 49 254 1.0 7.0 0.00 0.03 0.00 1 1018.1
20240521192756 49 323 1.0 9.0 0.00 0.03 0.00 4 1018.1
20240521192256 49 279 1.0 12.0 0.00 0.03 0.00 10 1018.0
20240521191756 50 327 0.0 6.0 0.00 0.03 0.00 15 1017.9
20240521191256 50 290 0.0 6.0 0.00 0.03 0.00 26 1017.9
20240521190756 50 295 1.0 9.0 0.00 0.03 0.00 33 1017.8
20240521190256 50 349 3.0 11.0 0.00 0.03 0.00 36 1017.8
20240521185756 51 261 0.0 8.0 0.00 0.03 0.00 37 1017.6
20240521185256 51 212 8.0 9.0 0.00 0.03 0.00 37 1017.6
20240521184756 51 275 7.0 8.0 0.00 0.03 0.00 34 1017.6
20240521184256 51 307 1.0 7.0 0.00 0.03 0.00 33 1017.6
20240521183756 51 306 7.0 9.0 0.00 0.03 0.00 35 1017.5
20240521183256 51 345 0.0 10.0 0.00 0.03 0.00 37 1017.4
20240521182756 52 289 3.0 11.0 0.00 0.03 0.00 41 1017.4
20240521182256 52 295 6.0 9.0 0.00 0.03 0.00 46 1017.3
20240521181756 52 240 4.0 10.0 0.00 0.03 0.00 53 1017.2
20240521181256 53 257 0.0 8.0 0.00 0.03 0.00 56 1017.1
20240521180756 53 271 2.0 9.0 0.00 0.03 0.00 57 1017.0
20240521180256 53 335 8.0 10.0 0.00 0.03 0.00 60 1017.0
20240521175756 54 330 1.0 2.0 0.00 0.03 0.00 60 1016.9
20240521175256 53 283 0.0 6.0 0.00 0.03 0.00 62 1016.9
20240521174756 53 266 0.0 5.0 0.00 0.03 0.00 61 1016.9